Location: ??
(31.9467°N, 34.8903°E)
Time: 16:20:52
(UTC+00:00)

Atlas Centaur 2 - Pass Details

Date: 29 October 2020
Orbit: 459 x 1309 km, 30.4° (Epoch: 29 November)

Event Time Altitude Azimuth Distance (km) Brightness Sun altitude
Rises 17:18:16 0° 273° (W) 4,205 7.0 -31.3°
Reaches altitude 10° 17:21:09 10° 272° (W) 3,285 6.1 -31.9°
Maximum altitude 17:29:39 77° 188° (S) 1,331 3.0 -33.7°
Enters shadow 17:29:44 77° 182° (S) 1,331 3.0 -33.7°
